Location: Beuerbach
(48.1459°N, 10.9174°E)
Time: 00:59:10
(UTC+00:00)

Meteor 1-21 - Pass Details

Date: 10 August 2024
Orbit: 845 x 885 km, 81.2° (Epoch: 09 September)

Event Time Altitude Azimuth Distance (km) Brightness Sun altitude
Rises 22:39:33 0° 359° (N) 3,418 8.6 -26.0°
Reaches altitude 10° 22:42:59 10° 21° (NNE) 2,479 7.4 -26.1°
Maximum altitude 22:46:24 16° 59° (ENE) 2,066 6.4 -26.2°
Enters shadow 22:49:11 12° 91° (E) 2,346 6.4 -26.3°
